Location: Jastrzębia Góra
(54.8312°N, 18.3037°E)
Time: 11:43:16
(UTC+01:00)

ISS - Pass Details

Date: 26 January 2019
Orbit: 403 x 411 km, 51.6° (Epoch: 21 February)

Event Time Altitude Azimuth Distance (km) Brightness Sun altitude
Rises 19:12:17 0° 245° (WSW) 2,335 1.0 -25.6°
Reaches altitude 10° 19:14:26 10° 237° (WSW) 1,477 -0.3 -25.9°
Enters shadow 19:15:30 18° 229° (SW) 1,078 -1.2 -26.1°
